ECMWFFLT2_700_spd_009.txt.gz
Wind_Speed
31 26 24 31 32 28 29 34 37 35 33 30 18 9 11 11 6 7 12 13 17 21 23 22 21 21 20 18 17 18 18 18 19 19 18 18 19 21 22 23 24 26 27 28 30 30 29 27 26 24 23 23 23 23 22 22 24 26 26 26 24 23 22
32 31 25 26 31 30 29 32 38 36 27 25 23 12 6 8 7 6 12 14 15 14 12 13 16 16 18 19 19 19 20 20 20 19 19 20 20 19 19 19 20 22 24 26 28 30 30 29 27 23 21 20 20 21 22 21 22 24 25 25 26 26 25
27 32 31 28 28 32 33 33 35 32 21 19 22 14 5 7 7 4 10 15 18 20 17 16 18 16 15 17 17 20 22 21 19 18 18 20 21 20 18 19 20 22 23 26 27 28 29 30 28 25 22 20 20 22 22 22 21 21 22 23 25 26 27
23 28 35 35 31 30 33 34 32 31 27 22 23 19 11 8 6 5 7 10 15 25 26 23 24 22 17 15 18 22 24 23 21 17 17 20 22 20 19 21 23 24 25 26 26 26 27 28 27 27 25 24 23 22 22 22 21 21 22 23 23 24 26
24 28 35 39 36 32 34 33 29 29 30 24 21 22 21 15 7 5 7 7 12 22 25 22 22 23 20 18 19 22 23 24 21 17 17 20 21 20 20 23 23 22 23 25 25 24 24 26 26 27 27 26 25 23 23 23 23 23 24 23 23 24 25
27 30 32 35 37 38 40 35 31 31 31 25 18 14 20 22 14 7 7 8 12 20 25 23 21 22 20 20 20 19 19 20 20 19 18 18 18 19 21 22 20 18 19 23 25 23 23 25 26 28 28 27 26 26 25 25 26 26 26 26 25 24 24
28 28 28 29 31 38 44 41 37 36 34 33 26 15 16 20 18 14 10 9 12 17 21 21 21 21 19 17 19 20 19 20 20 21 20 16 16 20 21 20 18 15 15 20 24 24 24 25 26 27 28 27 27 26 26 26 28 27 26 26 25 24 25
32 29 28 29 29 33 40 44 45 42 38 39 37 30 25 22 19 17 9 7 12 13 13 15 19 22 22 18 18 19 20 20 20 20 18 15 17 22 22 20 18 15 13 18 23 25 27 27 27 28 28 28 28 28 28 28 28 27 26 26 26 26 26
21 23 23 28 31 31 34 40 46 47 44 40 38 37 35 27 24 24 15 9 13 16 15 17 18 19 22 23 22 21 20 18 17 18 19 16 19 24 23 20 18 14 11 12 18 24 28 29 28 28 28 28 29 30 29 29 29 27 27 27 27 26 26
11 14 17 25 31 31 31 33 37 43 45 42 38 35 31 24 22 28 27 17 15 19 20 20 21 22 24 26 27 27 26 22 19 19 20 19 22 25 23 21 17 14 11 9 12 19 24 26 28 29 29 29 30 31 30 30 29 27 26 27 27 27 28
25 24 25 30 32 32 34 34 33 35 38 41 42 36 31 27 22 27 34 28 22 25 27 26 27 26 25 25 26 27 27 23 20 18 19 21 25 24 23 22 18 15 12 11 13 17 19 22 25 26 27 28 30 30 29 28 28 27 26 27 26 26 27
34 34 35 36 35 34 36 37 37 35 33 36 42 42 41 36 26 25 35 36 32 34 34 33 32 28 25 22 22 26 27 22 20 19 18 22 26 24 23 23 20 16 13 13 15 18 20 20 21 23 24 25 26 27 27 27 27 26 25 25 24 24 25
33 33 35 38 39 37 36 36 36 36 34 35 39 43 46 44 36 33 36 37 37 38 36 33 32 29 26 22 19 24 27 22 20 19 20 24 27 25 23 24 21 17 16 16 16 19 22 22 22 22 22 22 23 23 23 23 22 22 21 21 22 23 25
34 33 33 37 39 39 39 38 35 33 32 34 37 39 40 42 45 46 43 40 41 41 35 31 30 28 29 26 22 24 25 21 19 19 22 25 28 28 25 23 21 18 19 18 17 19 23 24 24 24 21 20 19 18 18 17 17 18 19 20 23 25 29
29 33 34 35 38 40 41 42 39 35 31 31 35 38 38 39 42 45 45 45 46 43 36 30 29 29 30 28 24 24 23 21 20 21 22 25 28 30 27 24 23 22 22 21 19 20 22 23 25 24 21 19 18 16 15 15 17 20 22 25 27 29 32
22 28 30 31 36 40 41 44 44 42 38 35 35 36 36 37 37 39 44 47 46 43 38 33 31 32 32 31 28 25 23 22 22 22 22 23 26 29 28 26 26 26 25 23 21 22 22 23 25 24 22 19 17 16 17 19 22 25 27 29 30 32 34
18 23 24 26 29 28 31 40 45 44 43 42 40 38 36 34 33 34 39 39 35 33 33 32 33 33 33 32 30 28 26 25 24 23 23 22 25 27 26 26 28 29 27 24 22 23 23 23 23 22 21 19 19 21 24 26 27 29 30 30 32 34 36
14 17 18 20 18 14 20 32 37 39 42 42 41 41 40 38 36 35 35 30 23 22 25 28 30 31 33 33 31 30 29 28 26 25 24 23 24 27 27 27 30 31 28 25 23 23 24 24 23 22 22 23 25 28 29 29 28 28 29 30 32 33 34
14 15 13 12 10 15 28 32 29 31 36 38 39 40 40 40 40 39 38 33 26 22 23 24 25 28 31 32 32 33 33 31 29 28 26 25 26 27 28 30 34 33 29 27 26 25 24 24 24 26 27 29 30 31 30 28 27 27 27 28 29 29 28
13 11 8 7 8 17 30 34 30 29 30 31 34 37 38 38 38 38 37 34 30 27 26 25 26 27 29 30 31 34 35 35 33 31 30 28 27 26 27 32 37 34 29 28 28 28 28 28 29 31 32 32 31 30 28 26 25 24 24 24 24 23 23
9 9 9 10 11 14 22 29 30 30 31 31 30 32 33 32 33 34 33 31 31 29 28 26 26 27 28 29 30 32 35 36 35 33 33 31 27 27 29 33 36 33 28 28 30 31 33 33 34 34 33 30 28 27 26 24 22 22 21 21 20 20 20
11 10 9 9 9 10 17 24 27 28 30 31 30 31 31 30 28 28 29 31 31 30 28 28 28 27 27 27 28 30 34 36 35 34 34 31 29 30 32 33 34 34 32 32 33 32 32 33 33 32 30 27 26 24 22 20 20 19 19 19 19 19 20
13 10 8 9 9 10 16 23 26 26 27 29 29 27 28 30 27 24 27 31 31 30 29 29 29 27 26 27 28 30 32 35 34 33 33 33 33 35 34 31 33 37 35 34 34 32 31 31 30 29 27 26 24 22 20 19 19 19 19 19 20 20 21
15 11 9 13 14 13 17 23 26 25 26 28 25 19 20 27 26 23 26 29 29 29 30 29 27 27 27 28 29 30 31 32 32 31 32 33 33 33 30 29 34 37 35 34 32 30 30 29 27 26 25 24 22 20 19 19 19 19 20 20 20 21 22
15 12 10 13 16 15 19 23 24 24 24 25 23 18 20 26 26 24 25 26 26 27 26 24 24 25 24 23 23 24 25 25 25 25 26 27 26 26 26 29 33 33 32 31 29 29 29 28 27 25 24 22 20 18 17 17 17 17 18 19 20 21 22
15 12 11 11 12 14 18 21 22 22 22 22 24 25 25 26 27 25 25 23 23 23 24 23 21 20 19 17 15 16 16 16 17 18 20 23 24 27 29 30 30 30 30 31 31 31 30 29 27 25 23 19 17 16 15 15 15 16 17 18 19 21 23
13 9 7 7 9 13 16 17 20 24 24 23 26 28 27 28 30 30 29 27 25 24 24 23 20 17 15 15 14 15 15 15 16 18 20 24 27 31 32 32 31 30 30 31 31 30 28 26 24 21 19 18 18 17 17 19 20 21 20 20 20 22 24
9 6 5 7 11 13 14 15 18 23 24 22 24 27 27 27 28 29 29 28 26 23 22 21 19 17 16 17 19 21 22 22 22 24 26 29 30 31 32 32 32 31 30 29 28 25 23 21 19 16 16 18 21 23 26 27 27 24 22 21 21 23 25
8 8 7 4 8 13 15 17 19 20 20 19 21 25 27 28 27 27 29 29 27 25 24 23 21 20 21 23 26 28 30 29 29 30 32 32 32 32 32 32 33 33 32 30 27 22 19 18 18 19 22 25 27 28 28 26 24 22 21 21 21 22 24
6 5 3 10 24 29 28 30 32 31 28 27 26 28 30 32 31 30 30 30 29 28 27 26 27 27 28 31 32 33 32 32 32 32 32 32 31 31 30 29 27 26 25 24 23 22 21 21 23 27 31 30 25 22 20 20 21 22 22 21 21 22 25
14 12 13 17 27 35 36 36 37 36 35 34 32 32 32 33 32 32 31 30 29 28 27 27 28 30 31 33 33 32 31 30 29 28 27 26 25 24 23 21 21 20 20 20 22 23 26 28 30 32 32 28 23 20 18 20 24 26 26 26 28 31 33
21 15 14 16 21 27 31 32 33 34 34 32 30 30 31 31 30 30 29 27 25 24 24 24 24 26 28 29 30 29 27 25 24 24 23 23 22 21 19 18 18 19 20 22 23 24 25 27 29 29 28 28 27 27 28 29 32 33 34 35 37 37 35
28 24 22 18 16 20 24 26 26 28 30 29 27 26 25 25 25 24 24 22 19 17 18 18 18 20 22 24 25 24 22 21 19 18 18 19 19 18 18 17 17 18 18 19 21 23 23 24 27 29 30 31 32 33 34 36 38 39 38 36 34 31 27
33 33 33 29 22 19 22 24 22 21 22 23 22 20 18 19 20 19 19 19 16 12 12 12 12 14 14 15 17 17 16 16 14 13 13 14 14 15 16 16 17 18 19 20 23 25 26 27 28 30 31 31 29 27 28 32 34 34 31 29 25 23 20
34 32 32 35 32 24 19 19 19 18 18 18 17 15 13 14 16 15 16 17 14 10 8 7 7 9 10 10 11 12 12 12 11 11 12 13 15 16 18 19 20 21 22 24 25 26 26 27 26 26 25 24 21 20 22 24 25 25 24 22 21 19 16
34 31 31 33 33 30 26 23 20 18 18 18 17 16 14 14 14 13 14 14 10 8 10 12 12 10 11 12 13 14 15 15 16 18 19 20 21 21 21 22 22 22 23 24 24 24 24 24 23 22 21 19 17 17 20 21 21 22 22 20 18 17 14
32 33 34 32 29 28 27 25 22 20 19 18 17 16 16 16 15 14 13 13 9 7 8 10 12 12 14 15 16 17 17 18 19 21 22 23 23 22 22 22 23 22 22 22 22 22 22 23 22 22 20 17 15 16 18 19 20 20 20 19 17 15 12

ECMWFFLT2_700_spd_015.txt.gz
Wind_Speed
29 30 33 36 36 31 28 34 41 40 34 34 30 23 25 26 18 17 25 27 27 28 24 21 19 19 23 24 24 26 25 22 20 19 21 21 17 19 28 29 22 18 20 21 22 23 23 23 23 23 22 20 19 21 23 25 26 26 26 25 25 24 23
30 28 28 34 38 34 29 32 39 37 32 34 33 22 18 19 13 16 27 29 27 25 22 23 26 24 23 24 25 26 25 22 21 20 21 22 20 19 26 28 23 20 21 22 22 23 23 22 23 24 23 21 19 19 21 24 26 26 25 24 24 24 23
28 27 27 30 37 41 37 30 29 34 32 32 34 25 16 15 11 12 23 29 28 27 23 21 26 29 28 28 28 27 24 23 23 21 20 20 21 22 25 25 23 24 24 23 22 22 23 23 24 25 25 23 22 20 20 23 26 26 24 23 25 25 24
24 27 29 31 35 40 43 37 30 33 35 33 36 33 24 18 13 11 18 21 23 28 28 23 23 26 28 29 30 29 27 25 23 21 20 19 19 19 21 20 21 23 23 23 23 22 24 24 24 26 27 25 24 22 21 23 26 27 26 26 26 26 25
25 29 33 35 35 36 42 45 39 34 33 34 36 36 36 29 16 10 12 14 20 28 28 24 23 22 23 25 28 29 28 25 22 20 21 22 21 21 19 17 16 18 20 22 24 23 24 25 25 27 29 28 26 25 23 23 25 27 28 28 27 26 26
29 32 33 33 33 32 36 42 44 38 32 32 28 25 35 39 27 18 13 12 20 26 24 24 25 22 21 22 24 27 26 23 20 19 19 21 23 24 20 18 17 16 18 20 24 25 25 26 25 26 30 30 29 27 25 24 25 26 28 29 29 28 28
26 27 28 29 30 32 33 35 42 43 37 34 28 20 29 37 32 30 26 18 21 25 20 20 22 23 24 23 23 24 24 22 19 18 19 20 23 23 18 16 17 15 18 20 24 26 27 27 26 25 29 32 30 29 28 26 26 25 26 28 30 29 29
23 23 24 28 29 30 34 35 38 42 41 40 34 25 29 34 32 33 26 18 25 28 21 17 17 20 24 25 25 25 25 24 22 21 19 16 19 21 18 18 18 16 17 20 24 27 28 28 26 25 28 32 32 30 29 29 27 26 25 27 29 29 28
19 20 20 25 31 32 35 37 37 38 42 45 40 31 31 33 35 36 25 17 27 32 27 25 21 18 21 24 27 28 27 26 25 23 20 16 17 22 21 21 19 16 16 19 23 26 29 29 26 25 27 31 33 32 31 30 29 28 27 27 28 28 27
14 17 17 22 30 32 32 35 37 37 40 44 42 38 36 30 29 36 34 28 29 28 27 30 28 22 21 20 21 23 24 26 26 25 22 19 20 24 24 24 19 15 16 19 22 25 28 28 25 25 27 29 31 32 31 31 31 30 29 28 28 28 27
21 21 21 21 24 27 29 31 35 38 38 39 39 39 42 36 29 34 39 36 32 28 26 28 29 27 24 21 20 20 19 21 24 23 22 22 25 27 27 26 22 20 20 20 22 25 27 27 25 26 28 28 29 31 31 32 32 32 31 30 30 31 29
28 24 22 21 22 25 29 30 32 36 37 38 40 40 42 40 32 31 36 36 35 36 33 28 29 30 28 27 26 24 23 22 21 20 22 26 29 29 27 26 25 24 24 22 22 24 26 27 26 28 29 27 27 30 30 30 32 34 33 32 32 33 33
32 30 27 25 25 26 29 29 29 32 35 38 41 41 40 40 37 34 34 34 35 40 41 36 32 29 28 28 28 26 25 25 24 22 22 24 27 27 27 26 25 24 25 24 24 24 27 28 28 30 30 28 28 29 29 30 32 34 34 33 34 34 34
29 31 31 30 29 28 30 31 30 31 34 36 39 41 40 40 41 39 35 32 33 36 39 40 40 36 29 26 26 26 26 27 27 24 22 22 23 27 30 28 23 23 25 26 26 26 29 30 30 30 29 28 28 28 28 28 31 35 36 35 33 32 32
25 27 30 31 32 32 31 32 33 33 34 34 37 40 41 41 41 40 38 36 35 34 32 34 39 42 39 32 27 25 24 25 25 24 23 22 21 25 29 28 23 21 23 26 27 27 30 30 30 29 28 27 26 26 26 26 29 34 36 35 32 30 31
26 27 27 28 32 33 33 35 35 35 35 35 35 37 38 40 40 38 39 41 40 36 32 30 30 35 42 42 38 33 28 25 23 23 24 24 23 25 29 29 26 20 20 25 27 29 31 30 30 29 27 25 24 25 26 25 27 31 33 33 31 30 30
27 27 27 30 30 26 29 37 39 38 37 36 37 36 35 37 39 38 39 41 39 34 34 35 32 31 36 41 43 42 40 37 32 28 28 29 28 26 29 32 30 24 23 24 26 32 32 30 31 29 27 26 25 25 27 26 27 30 32 33 31 29 30
24 24 26 27 23 20 27 36 37 37 39 39 39 39 38 36 37 38 38 37 35 33 34 38 39 36 36 38 40 41 43 45 43 39 37 36 33 29 31 32 29 26 26 25 26 34 34 31 33 32 30 29 27 27 29 29 29 30 31 33 32 29 30
20 21 22 19 17 22 28 28 27 31 37 39 40 40 40 38 38 38 37 35 34 32 33 36 39 39 38 38 38 37 38 40 42 42 40 39 37 36 33 30 27 27 28 25 25 35 37 34 35 35 33 32 30 30 32 32 32 32 33 34 32 30 31
19 19 19 15 16 22 23 19 21 27 30 34 40 41 40 39 38 38 38 36 34 32 31 32 33 35 37 39 39 39 38 37 38 40 39 38 40 42 39 36 34 34 31 25 24 33 39 37 36 37 36 34 33 34 34 33 34 34 34 34 32 31 32
20 19 20 20 20 22 20 16 17 19 20 22 24 27 29 32 35 37 37 35 33 32 32 30 28 28 31 35 38 38 38 37 37 39 40 38 38 40 43 44 41 35 31 27 24 29 38 40 38 37 38 37 36 37 36 34 34 34 33 33 33 32 33
20 19 18 17 17 17 18 17 14 13 15 17 18 20 24 26 27 29 35 36 33 31 30 30 29 28 28 31 33 32 32 34 34 37 41 39 37 39 42 42 39 34 31 29 27 27 33 40 41 39 39 39 38 38 37 35 35 35 35 34 34 34 34
22 21 17 16 16 16 15 17 17 16 17 21 24 25 29 30 25 22 27 33 34 33 31 29 29 29 30 31 30 27 28 29 31 37 43 42 41 42 42 39 37 35 32 31 30 27 29 37 43 43 40 39 38 38 38 37 36 36 37 36 36 36 36
24 23 21 20 20 16 12 13 15 14 14 17 18 17 21 27 29 28 30 31 31 32 31 30 29 29 31 33 29 25 25 26 29 35 40 42 43 43 41 38 37 36 34 32 31 29 29 34 40 43 41 40 40 39 38 38 38 38 39 38 38 38 37
28 25 23 21 20 17 17 17 14 11 11 14 15 14 14 17 23 31 35 32 28 28 30 32 33 33 32 32 29 27 25 26 30 34 36 39 43 41 39 39 38 37 35 32 31 30 30 30 34 41 44 43 41 40 38 38 39 40 41 40 39 38 36
29 28 26 23 19 19 20 20 17 16 15 14 16 18 18 16 17 23 28 29 29 30 28 29 33 33 30 28 30 34 33 29 30 32 32 36 41 41 40 41 39 37 35 33 32 32 32 30 30 38 46 46 42 40 40 41 41 41 41 40 38 36 32
28 28 25 20 18 19 19 16 16 18 18 17 20 21 20 19 20 19 20 25 31 33 32 32 32 32 31 32 36 41 41 35 32 32 31 33 38 41 42 42 41 40 38 37 35 34 34 34 32 35 42 46 44 42 43 43 42 41 40 38 36 33 29
27 29 25 19 18 19 19 18 16 19 21 22 23 20 17 19 23 23 21 22 25 28 30 31 28 26 30 37 41 41 39 35 34 34 32 32 34 37 40 43 44 43 41 39 37 34 34 36 34 32 37 45 46 44 42 41 40 38 36 33 30 27 25
22 23 20 15 13 13 18 22 22 22 25 26 22 17 15 18 22 23 24 25 24 23 25 26 26 27 29 33 37 39 38 35 34 35 34 33 32 32 35 39 41 41 39 37 36 35 35 36 34 32 35 41 43 42 41 40 38 36 33 30 28 26 25
17 14 11 11 12 11 15 22 23 23 26 29 26 19 16 19 22 22 22 20 15 14 18 21 23 27 29 28 29 34 37 37 36 36 34 34 33 32 33 36 36 36 34 32 31 32 32 32 31 32 34 36 37 38 38 36 34 32 31 30 30 30 28
13 12 9 9 12 13 13 15 17 18 23 28 28 23 16 16 19 17 13 9 6 8 11 13 15 20 23 22 20 23 27 30 33 34 32 31 30 28 28 29 29 28 27 26 27 29 30 31 32 35 36 36 34 33 32 31 29 28 27 26 25 24 24
12 12 12 12 13 13 13 13 13 13 12 12 12 11 9 8 6 6 8 8 9 10 10 10 11 11 12 11 11 14 17 20 25 29 28 27 26 23 21 22 24 25 27 29 31 32 33 34 35 35 35 33 30 29 27 25 24 24 24 24 23 23 23
12 11 13 15 15 15 16 16 15 14 14 12 12 12 10 10 13 17 18 16 16 18 20 20 18 18 18 17 15 16 17 18 20 21 22 23 25 27 27 28 29 31 32 33 33 33 33 34 33 32 31 29 28 28 27 24 23 21 20 21 22 22 22
13 12 14 15 15 15 17 18 18 19 20 20 20 23 24 22 22 23 22 20 20 22 25 26 25 25 26 26 23 23 25 27 28 28 28 28 28 30 31 31 32 33 33 33 33 31 30 30 29 28 27 25 25 25 24 21 20 18 17 18 20 21 22
12 10 13 17 17 17 19 21 24 26 24 24 25 27 28 29 29 28 26 24 24 25 28 30 30 28 28 28 28 28 29 30 30 31 32 31 30 31 31 31 31 32 31 29 28 26 24 23 21 19 19 18 18 17 16 16 16 16 17 19 20 21 23
11 9 13 18 20 21 23 27 30 31 30 30 30 28 26 25 26 26 26 26 26 26 27 29 30 30 30 28 27 27 26 25 26 27 28 28 28 27 26 26 27 28 26 23 20 19 17 16 14 13 12 13 14 14 14 14 15 16 17 18 18 19 19
9 11 17 20 21 25 30 32 33 35 36 36 33 29 23 18 17 17 17 19 23 25 26 27 27 26 26 26 25 24 23 21 22 23 23 23 23 22 20 19 20 21 20 19 17 15 13 12 11 11 11 12 13 14 14 15 15 16 16 16 17 17 16

ECMWFFLT2_700_spd_021.txt.gz
Wind_Speed
32 30 30 34 36 30 26 36 43 42 41 36 21 14 19 19 9 9 18 20 21 23 21 23 25 25 28 28 27 29 27 30 34 32 33 33 32 35 35 32 30 28 27 27 27 26 25 23 21 19 18 18 17 15 13 12 12 14 17 19 21 22 22
31 31 29 30 37 35 27 32 41 36 30 32 26 14 11 12 6 8 18 20 20 20 18 25 30 26 29 31 27 25 26 31 35 33 32 32 32 35 34 31 28 27 28 25 24 26 26 24 24 22 21 20 18 16 15 14 12 12 14 17 19 21 22
31 31 31 32 35 38 33 27 28 28 25 25 26 16 6 8 5 4 14 21 23 25 20 21 30 31 29 29 29 26 25 31 37 37 35 34 34 35 34 31 28 27 27 24 21 25 26 26 26 25 23 22 21 19 18 16 14 12 13 15 17 20 22
31 34 37 37 34 37 38 31 27 32 30 27 30 26 14 9 5 3 10 13 17 28 26 17 24 34 30 26 29 29 28 32 38 40 39 35 35 36 34 30 29 27 25 22 21 24 26 26 26 26 25 25 24 22 20 19 18 16 15 17 18 19 22
32 39 42 40 36 36 41 40 38 38 34 29 29 32 31 20 6 3 6 6 13 26 29 22 23 28 29 29 29 28 30 33 37 40 38 34 32 33 32 30 29 28 23 19 21 23 25 27 26 26 26 26 26 25 23 22 21 19 17 18 19 19 22
31 37 40 41 40 39 41 44 47 45 38 29 19 18 33 34 19 11 7 4 13 24 26 28 30 28 28 33 32 31 33 33 35 37 37 34 31 30 30 30 30 28 22 18 21 24 26 27 26 25 24 24 26 27 26 24 24 22 19 18 20 20 22
32 28 31 38 41 40 41 41 46 47 41 35 21 9 18 29 27 25 19 11 15 24 25 25 29 28 26 30 31 32 34 34 34 37 39 38 34 30 28 30 31 29 24 19 21 25 28 28 26 24 24 24 26 27 27 26 26 24 21 19 20 21 23
36 31 29 36 40 40 41 41 43 44 42 39 32 20 15 19 22 22 15 11 18 26 27 25 25 24 20 23 30 30 31 35 35 35 38 38 34 30 30 30 32 31 26 22 23 25 27 28 27 26 25 25 26 26 26 27 27 25 23 21 21 22 24
25 29 25 29 43 45 42 41 40 41 41 39 36 33 26 20 25 26 12 8 20 30 32 30 26 23 18 19 29 32 31 32 32 30 34 37 33 30 30 32 35 34 27 23 24 25 25 27 26 26 28 27 26 25 25 26 27 26 25 24 23 23 24
11 17 17 20 38 46 42 38 37 37 39 38 36 36 30 20 27 36 27 17 21 27 33 36 32 26 20 16 23 31 30 28 27 26 28 32 31 29 29 32 36 34 26 21 23 25 24 24 23 23 26 26 24 23 24 26 26 27 27 27 25 24 24
26 25 27 23 27 37 41 40 37 36 36 37 37 36 34 28 24 30 37 34 27 23 25 32 36 31 25 20 21 25 28 28 28 28 30 29 27 28 29 31 34 33 25 21 22 23 22 21 19 21 23 23 23 23 23 25 25 26 28 28 27 26 25
41 35 33 31 27 28 36 41 40 38 35 35 39 39 41 39 25 19 31 36 35 33 27 25 31 32 30 28 24 21 24 26 22 22 28 30 29 31 30 29 33 34 26 22 21 19 18 16 15 17 20 22 23 22 23 24 25 25 28 29 29 28 27
45 41 33 32 35 33 31 35 39 39 38 37 39 40 42 41 33 30 35 32 30 33 31 27 28 29 31 33 29 24 25 25 20 17 21 25 28 32 31 29 32 32 27 24 22 18 17 14 12 13 16 19 21 22 22 24 24 24 26 29 30 30 29
41 43 39 34 37 37 32 31 34 36 39 40 40 38 37 38 38 40 42 39 37 34 29 28 26 22 25 31 29 26 26 27 24 18 17 20 22 26 28 29 30 28 23 22 21 21 20 17 15 14 15 17 20 21 21 23 25 25 25 28 30 30 30
30 37 42 41 40 38 34 30 31 36 39 40 41 39 35 34 35 37 36 38 43 43 38 37 32 23 21 23 20 18 19 24 25 19 17 20 21 23 26 29 28 23 19 19 20 22 23 22 21 19 17 18 19 20 21 23 25 25 24 26 28 28 28
22 29 36 42 45 41 39 39 36 35 37 37 37 39 38 36 34 34 33 34 37 39 38 40 40 33 27 25 24 20 18 20 25 24 20 18 17 19 22 25 26 22 20 22 24 24 24 26 27 25 22 21 21 21 21 22 24 26 25 24 26 26 25
18 23 25 32 38 32 35 46 43 33 31 32 34 35 36 37 36 34 35 34 32 30 29 32 37 40 37 33 30 29 25 22 24 26 24 21 19 19 19 21 23 22 21 23 25 27 28 28 30 29 25 24 22 20 20 21 24 27 26 25 25 24 23
14 19 21 21 20 19 30 45 45 35 30 28 29 31 30 31 33 33 35 36 33 29 26 25 28 33 38 39 36 32 30 27 25 25 27 27 25 25 25 26 26 25 25 25 25 26 27 27 28 27 25 24 22 20 20 22 26 28 28 27 25 24 23
14 16 22 14 10 16 26 34 39 40 37 30 26 26 27 27 27 28 33 38 36 31 28 27 25 26 29 35 40 40 36 33 30 27 28 30 29 28 27 28 29 30 30 31 29 27 25 25 25 25 23 22 22 22 22 24 27 30 30 28 26 25 23
19 15 17 11 10 18 17 17 27 34 34 29 26 24 24 25 24 21 24 30 31 29 31 33 31 27 26 28 31 33 34 35 36 33 31 29 28 29 30 30 30 30 29 31 30 27 25 24 23 25 24 21 22 23 24 26 28 31 32 30 28 27 25
23 19 17 15 17 19 16 15 22 25 21 18 20 21 19 19 19 16 13 15 19 22 28 33 30 28 30 32 30 27 26 29 32 33 30 24 21 26 31 32 30 28 29 32 31 28 28 28 26 25 23 22 22 23 25 28 30 32 34 32 30 28 27
21 21 16 12 11 13 18 19 18 21 19 16 18 20 16 13 16 17 13 11 14 16 19 24 26 26 28 32 35 35 31 29 30 29 28 25 22 23 27 29 29 29 29 33 34 31 30 32 30 29 28 27 26 24 25 29 31 34 36 35 32 31 30
14 17 13 10 9 13 18 18 15 18 21 20 20 19 13 11 15 19 18 14 15 17 16 17 20 20 19 22 31 38 37 33 34 34 33 34 33 31 30 30 31 32 32 33 34 33 32 33 34 34 34 35 34 31 27 30 33 37 38 37 34 33 32
7 11 12 14 14 12 13 17 19 19 19 21 18 10 5 10 15 18 20 18 18 20 19 18 19 19 18 17 20 28 33 33 35 37 38 41 44 43 41 41 39 37 35 34 35 35 35 37 38 39 39 41 43 39 32 31 35 38 40 38 36 34 35
5 6 7 12 13 8 10 16 19 19 18 17 15 9 6 11 16 20 24 25 25 24 21 19 19 19 21 19 15 18 26 30 30 30 31 37 41 40 41 45 45 44 41 40 40 39 38 40 42 42 42 44 47 44 38 35 35 39 41 40 38 37 37
7 7 6 6 6 6 12 15 15 18 18 12 11 13 12 13 17 23 27 28 28 26 24 23 21 20 24 25 21 18 21 23 25 23 23 29 35 36 36 40 42 43 43 44 45 45 45 45 44 42 43 46 48 46 43 39 36 37 42 42 40 40 39
8 10 6 3 4 6 11 15 14 17 18 11 10 15 17 16 18 20 22 24 25 24 23 22 22 21 24 29 30 27 25 25 27 25 22 22 25 27 30 33 36 39 41 41 43 46 48 48 45 43 44 48 50 48 46 43 39 38 42 45 43 41 40
7 6 6 5 10 12 12 17 19 19 20 16 12 14 17 17 16 16 18 22 25 26 24 22 22 22 23 26 31 33 31 30 30 30 28 26 26 25 25 25 26 30 32 32 33 39 45 46 46 46 48 50 50 48 46 44 42 40 42 46 46 44 42
9 7 5 6 11 13 16 21 22 22 26 24 18 16 18 18 17 17 20 25 27 27 27 25 25 25 23 23 26 30 33 33 32 31 30 30 32 33 31 28 25 25 28 28 28 33 41 43 43 46 47 48 48 47 45 44 42 41 42 46 48 47 44
11 9 7 5 6 8 12 20 24 25 28 28 24 23 24 24 23 22 23 26 26 25 26 25 24 24 23 23 22 24 28 31 31 30 30 30 31 32 34 35 33 31 31 32 34 37 40 40 40 43 46 47 47 46 45 44 42 41 43 45 47 48 46
14 11 8 7 5 3 9 15 22 26 28 28 28 28 27 26 25 23 22 22 22 22 23 23 22 22 22 23 23 23 25 27 28 28 29 31 33 33 33 35 37 38 39 40 41 41 39 36 36 37 41 45 46 46 45 43 42 43 43 44 46 48 48
19 17 11 9 6 2 12 17 18 21 26 28 29 29 26 24 23 20 20 22 22 22 23 24 24 26 27 26 26 26 26 27 28 28 29 31 34 35 36 36 37 39 42 46 47 46 46 46 41 36 39 43 45 46 46 45 45 46 46 46 48 50 50
21 18 15 13 9 4 14 19 19 21 25 29 30 29 26 23 20 18 19 22 23 22 23 25 25 27 28 27 26 26 25 27 28 30 32 33 34 36 37 38 39 41 41 44 48 49 50 54 53 45 41 46 49 50 51 51 51 50 50 50 49 46 44
19 16 14 16 14 8 15 19 18 19 20 23 26 26 24 22 19 19 21 22 21 20 21 22 22 22 23 23 22 22 22 24 26 28 31 33 34 35 36 36 40 44 44 43 45 49 52 54 53 47 43 47 52 53 52 52 50 48 46 43 39 34 32
15 14 13 14 16 14 18 21 20 17 15 17 20 20 19 18 17 18 20 21 20 20 21 21 21 21 21 20 20 20 20 21 21 23 27 30 31 31 31 30 32 39 46 46 43 46 50 50 46 44 43 45 45 45 44 42 40 37 34 32 29 27 29
13 14 15 15 16 18 21 22 20 17 15 15 15 14 14 15 15 17 18 19 19 19 20 20 19 19 19 18 19 19 19 19 20 21 24 28 29 26 22 20 23 30 41 46 41 36 36 37 37 37 37 35 32 30 30 28 27 25 24 25 28 31 31
11 12 17 20 20 20 19 19 19 18 17 15 14 12 11 11 12 14 15 16 16 17 18 18 18 18 17 17 17 18 18 18 19 19 20 22 24 21 15 11 15 21 27 32 34 32 31 33 33 30 27 26 24 21 20 19 20 21 22 25 26 25 23

ECMWFFLT2_700_spd_024.txt.gz
Wind_Speed
38 40 38 36 34 33 33 40 46 43 41 40 27 14 15 14 6 9 18 19 20 23 23 25 26 28 32 32 34 40 37 34 36 36 36 37 37 37 37 36 35 32 27 24 24 25 23 22 22 22 22 22 21 18 17 16 17 19 22 25 28 29 29
36 39 38 38 36 34 32 38 45 40 33 36 33 15 9 11 5 6 17 20 20 20 20 25 27 26 29 31 34 39 38 35 34 33 32 34 36 37 36 34 32 28 25 24 25 24 23 21 20 22 23 22 22 19 17 17 16 16 17 20 23 26 27
32 33 35 38 38 37 36 35 37 35 25 25 29 18 7 9 6 4 13 20 22 24 22 24 29 29 27 28 32 37 38 36 34 31 30 31 33 36 37 34 31 28 26 25 24 25 24 21 19 22 24 24 23 21 19 19 18 16 15 17 20 22 24
26 32 37 41 43 40 38 37 34 36 33 29 32 27 15 9 6 5 8 10 18 29 28 22 25 30 28 27 30 35 36 35 33 31 30 31 34 37 37 35 32 29 26 25 25 26 26 24 21 23 25 26 25 23 22 22 20 18 18 19 21 21 21
28 35 40 43 47 44 42 44 39 38 36 30 30 34 30 17 5 3 4 5 16 32 32 25 23 25 27 27 28 32 35 34 32 30 29 30 34 36 35 35 34 29 26 25 26 26 26 25 24 25 27 27 26 24 24 24 23 23 23 22 21 21 20
35 38 38 40 47 46 44 48 47 43 38 27 18 19 29 29 17 9 7 6 17 30 33 32 28 24 25 26 26 29 34 35 34 33 30 28 31 34 34 36 34 29 25 25 26 26 26 27 26 27 29 28 27 26 26 26 26 26 25 23 22 21 20
39 36 33 33 39 45 46 46 46 46 43 36 22 9 13 24 25 22 15 12 21 30 29 29 30 28 26 26 27 28 30 34 36 35 31 29 31 32 33 36 34 28 25 26 27 28 28 29 29 29 29 28 27 27 26 26 28 28 26 24 23 21 20
43 42 39 34 33 41 49 49 47 45 47 47 38 24 17 18 22 23 15 12 25 32 28 27 30 29 26 24 28 30 28 30 35 35 32 29 31 32 32 35 33 26 25 29 29 29 30 31 32 32 31 29 27 26 25 26 28 29 27 25 24 23 22
28 33 34 34 35 38 45 52 52 49 50 51 45 38 29 21 23 24 16 11 21 29 30 32 33 32 29 25 26 31 32 32 34 34 32 29 31 34 33 33 33 28 27 30 29 29 30 31 33 34 32 30 28 26 26 27 28 28 27 27 26 25 23
13 18 21 29 37 40 41 46 51 52 52 50 46 40 31 23 24 28 23 16 20 30 35 36 36 37 39 35 29 29 30 32 34 34 32 31 31 33 35 35 34 32 30 29 30 30 29 30 32 32 32 30 28 27 27 27 27 26 26 28 28 27 26
34 32 33 34 33 34 39 41 44 49 53 52 49 42 35 31 26 31 37 27 20 28 34 33 31 31 35 37 34 31 26 25 32 33 32 33 31 30 35 38 36 34 30 29 31 32 30 29 30 30 29 29 28 28 29 27 26 26 26 27 29 29 28
54 48 43 40 33 27 33 39 41 44 49 52 52 47 44 37 25 29 44 38 26 26 25 24 25 23 25 28 30 31 26 22 25 27 28 34 32 28 33 38 38 35 31 30 32 34 32 29 29 29 28 28 28 28 28 27 26 27 26 27 30 31 30
52 55 46 43 41 33 29 36 43 45 48 52 54 51 49 44 35 36 44 42 38 35 25 21 25 26 28 30 27 28 27 24 25 27 30 34 33 30 34 38 39 37 34 32 31 33 34 31 29 29 28 27 27 27 26 26 26 26 25 26 30 31 31
37 53 52 46 46 43 34 34 41 44 47 52 54 51 48 46 46 45 42 39 42 40 30 25 27 27 27 29 27 25 25 25 28 33 35 35 33 32 34 37 39 37 35 33 32 32 34 32 30 31 31 29 28 26 26 26 26 26 26 27 29 31 32
23 43 57 53 48 47 42 36 38 39 42 47 49 50 49 47 47 44 40 40 42 40 35 32 30 26 23 21 22 21 19 21 27 33 33 32 31 31 34 38 38 35 31 31 31 33 34 32 32 33 32 30 28 27 27 27 27 27 28 28 29 32 32
16 29 46 55 53 49 44 41 40 38 39 44 47 47 47 46 44 42 41 42 39 36 38 39 37 35 32 29 28 23 17 16 24 30 29 28 28 29 32 37 36 32 30 29 31 33 33 32 32 33 31 29 28 27 28 28 29 30 30 29 30 32 33
14 15 28 52 54 38 36 46 46 37 35 40 44 45 46 43 40 39 40 41 37 32 34 41 44 41 39 37 37 33 26 20 20 23 22 21 21 21 24 29 30 29 28 28 32 35 33 31 31 30 29 27 25 25 26 27 29 31 32 31 32 33 34
17 11 18 39 38 23 31 47 48 42 38 36 35 37 41 43 43 41 36 34 35 34 34 37 40 40 38 34 32 32 30 26 24 22 20 19 19 18 18 21 24 27 27 28 33 35 32 31 30 28 27 25 23 23 25 27 29 31 32 33 33 34 35
20 16 16 21 20 24 36 38 37 41 40 37 33 30 32 36 39 42 39 33 32 35 36 34 32 32 30 26 22 21 22 23 25 26 26 24 22 22 22 21 22 24 27 30 33 33 30 29 28 28 28 25 24 25 27 30 31 31 32 34 35 35 37
17 16 17 11 13 27 34 27 31 35 28 29 31 23 22 29 30 31 36 39 37 34 33 33 32 31 30 25 20 20 21 21 21 22 25 26 24 21 23 25 24 23 26 30 32 32 31 29 28 28 26 25 25 26 29 33 35 34 33 34 36 37 37
10 15 18 10 10 17 24 25 33 33 21 25 30 20 15 21 23 19 22 31 38 37 32 30 31 33 32 27 21 20 21 23 23 21 19 23 26 23 22 24 25 25 26 29 29 29 30 30 30 29 27 26 27 29 31 33 35 36 35 35 36 37 39
13 17 16 10 7 9 18 21 24 23 13 14 27 24 17 16 16 15 14 19 29 33 29 25 28 32 32 29 27 25 21 20 24 24 19 18 22 23 24 27 28 26 26 28 27 26 26 28 30 30 29 29 29 31 32 35 36 36 37 37 36 37 39
14 17 13 9 6 4 11 15 14 16 10 7 17 21 17 17 16 16 15 16 20 24 22 18 20 27 30 29 31 31 26 21 22 24 22 21 22 22 24 28 28 26 24 26 26 25 25 27 28 29 30 31 32 32 32 34 35 37 37 37 35 35 38
12 16 17 7 7 8 7 15 18 16 13 11 12 11 13 17 18 16 17 17 15 19 21 17 16 19 22 23 25 29 30 27 24 24 23 23 24 25 25 26 27 27 26 26 27 26 26 27 28 29 31 33 34 34 33 34 36 37 36 35 31 30 33
13 18 20 7 8 12 11 18 20 18 17 17 12 10 13 17 17 15 17 15 13 15 19 20 20 19 18 18 18 20 24 25 25 26 26 26 28 29 29 30 30 30 29 28 29 28 26 26 28 30 34 38 39 38 37 38 39 39 37 35 32 30 31
18 20 21 8 5 11 13 17 16 17 20 16 10 11 14 16 16 16 16 14 12 13 16 19 22 22 22 22 20 19 19 20 22 24 25 26 28 31 35 37 36 35 33 30 30 32 32 31 30 31 35 39 41 41 41 42 42 41 40 39 38 37 36
18 16 14 5 1 6 9 13 13 15 15 10 9 13 16 17 17 15 13 12 10 10 12 15 18 21 23 25 26 26 24 23 22 22 22 22 21 22 26 31 33 35 36 34 32 32 33 34 34 35 37 39 40 42 44 44 43 42 41 41 40 40 41
11 7 7 5 10 16 12 9 13 14 14 15 13 16 17 18 17 13 12 11 9 8 10 11 13 16 18 20 23 27 29 29 28 27 26 24 21 19 19 20 23 26 30 32 34 34 34 35 34 35 37 39 41 45 46 46 45 44 43 42 41 41 43
9 8 7 8 14 16 8 6 12 15 17 17 15 14 14 14 14 12 11 10 8 8 9 10 12 14 14 15 17 20 24 28 30 31 31 31 29 27 24 22 22 23 24 27 31 35 36 36 36 36 36 38 41 45 48 49 49 48 45 45 45 45 44
9 11 10 11 14 11 3 5 10 14 18 17 15 14 13 11 11 11 11 10 11 11 12 13 14 15 16 17 17 18 20 23 26 29 32 34 35 35 34 31 28 27 26 26 28 31 33 35 37 37 37 37 38 41 46 49 51 50 50 50 50 48 47
9 9 7 9 13 10 3 6 11 13 16 17 15 15 14 13 13 13 12 12 14 16 18 18 18 18 19 19 19 19 20 20 22 25 28 30 33 35 38 38 35 33 32 32 31 31 33 34 35 35 36 36 36 37 40 44 47 50 52 52 52 52 51
10 10 8 8 12 11 8 6 12 14 14 14 13 12 14 15 16 17 17 16 18 19 20 20 20 20 20 20 20 20 20 21 21 22 23 25 27 29 32 35 35 36 37 38 37 37 37 37 37 37 36 37 37 37 37 38 40 45 50 52 52 54 56
9 11 10 9 11 11 10 7 8 13 15 14 10 9 12 15 18 21 21 21 21 21 21 20 20 20 21 22 21 21 21 22 23 24 24 25 25 26 27 29 33 36 37 38 39 41 42 42 41 41 40 38 38 38 37 37 40 45 49 50 51 53 57
12 11 13 13 13 13 11 8 7 10 14 15 12 10 11 14 18 20 21 21 21 22 21 20 20 21 22 22 22 21 21 22 23 24 25 26 26 25 25 27 30 32 33 35 38 41 44 46 45 43 42 42 42 42 42 43 46 49 48 46 48 54 60
18 14 15 15 15 15 13 10 9 9 11 13 14 14 13 14 16 17 18 20 21 21 22 22 22 22 22 22 23 24 23 23 22 21 22 24 25 25 25 26 27 27 27 30 34 38 42 44 44 42 42 44 45 46 46 47 50 52 48 45 47 51 58
21 19 18 17 16 15 14 13 11 8 8 11 14 17 16 16 15 15 16 18 19 19 19 19 20 21 22 23 23 23 21 20 19 19 19 20 21 21 21 22 22 22 24 27 30 34 36 38 40 40 40 40 41 42 43 45 47 48 46 46 49 52 56
19 21 21 19 17 15 14 13 11 9 11 13 14 14 14 12 10 11 13 14 15 16 16 16 17 19 20 21 20 18 15 14 14 15 17 18 18 18 17 17 18 20 23 25 28 30 30 31 33 34 34 33 30 30 31 32 34 36 39 43 49 53 55

ECMWFFLT2_700_spd_030.txt.gz
Wind_Speed
33 33 32 30 27 25 21 27 38 41 40 32 17 11 14 11 6 6 10 16 24 25 26 28 24 24 29 29 28 28 28 27 25 25 27 26 25 27 30 32 32 30 30 31 31 30 30 30 29 29 27 26 26 26 25 25 25 27 29 31 32 33 34
27 28 31 31 31 29 23 27 39 36 26 26 23 13 9 8 5 5 10 16 20 19 18 21 23 25 28 31 31 28 26 26 26 24 24 24 22 21 23 27 30 31 31 31 31 31 30 30 29 28 27 25 25 25 25 24 23 23 22 24 26 29 31
23 23 27 29 30 33 31 30 31 25 16 19 23 15 5 4 4 4 9 15 21 27 23 15 16 19 23 28 32 32 29 27 26 24 22 21 20 20 23 26 29 31 32 32 32 31 31 30 29 28 27 26 26 25 24 24 23 22 19 19 21 23 26
21 22 29 32 33 34 35 34 32 27 22 20 25 23 11 5 4 3 6 8 18 32 34 25 19 18 16 18 24 29 31 30 29 26 22 21 21 22 24 24 26 28 29 30 31 31 31 30 29 29 28 28 27 25 24 23 23 23 22 21 21 20 22
22 27 31 32 34 36 38 39 36 33 28 20 19 25 25 17 7 3 2 6 13 21 23 22 22 21 19 18 19 23 25 27 30 29 26 22 21 23 23 23 24 25 27 29 29 30 31 30 30 30 30 30 28 26 25 24 23 23 24 24 23 22 22
26 29 27 26 28 33 38 42 42 39 34 25 12 12 25 30 20 9 5 7 18 22 17 14 15 17 20 21 21 21 21 22 25 29 29 26 24 24 23 21 21 22 25 27 27 27 30 32 32 32 32 31 29 28 27 25 24 23 24 24 24 24 23
26 24 23 25 26 28 33 39 43 42 39 35 22 12 19 28 26 21 11 10 26 35 27 19 16 15 16 18 22 24 23 22 22 24 26 27 27 26 23 20 21 23 23 24 26 26 28 32 33 32 33 32 30 29 27 26 25 24 24 24 24 24 24
28 26 24 25 26 29 35 40 43 45 44 42 37 31 27 23 23 23 12 8 23 32 27 22 20 17 15 15 18 22 24 25 24 24 23 23 24 26 26 24 24 25 25 24 26 27 27 30 32 32 32 32 31 29 28 28 26 24 25 24 25 26 25
18 23 23 25 29 32 36 40 42 44 47 44 41 41 35 24 24 27 17 11 22 30 27 24 22 20 19 17 16 19 21 23 25 26 24 21 21 22 25 26 25 27 28 24 25 27 27 30 32 31 31 31 31 30 29 28 26 25 25 25 26 27 26
8 10 10 15 24 30 33 36 39 41 44 44 43 41 33 24 25 31 27 20 24 30 30 26 23 22 21 19 17 19 19 20 23 26 25 23 22 20 20 22 23 26 27 24 24 27 28 30 31 29 29 30 30 30 29 28 27 25 25 25 27 28 27
9 9 9 10 15 22 24 27 33 39 41 43 45 43 37 32 27 32 39 35 28 27 28 26 23 21 21 19 17 18 18 17 19 22 23 25 25 22 20 21 22 22 24 23 24 27 28 29 30 29 29 29 29 29 29 29 28 26 25 25 26 27 28
11 13 15 15 15 18 18 21 29 36 37 41 47 47 46 41 30 30 44 46 38 34 31 28 26 23 22 20 16 16 18 19 20 21 22 24 26 25 22 22 22 22 22 22 23 27 28 27 28 29 29 30 30 30 29 29 28 26 26 26 27 28 28
14 13 14 17 21 22 21 22 27 33 37 42 49 50 49 47 39 38 46 46 42 41 36 31 29 24 21 20 15 13 16 19 21 23 23 23 26 27 25 23 24 23 21 22 23 26 28 27 27 28 28 29 30 30 30 29 28 26 25 26 27 27 29
17 14 11 14 20 24 27 28 28 30 35 41 47 48 47 48 47 48 49 44 41 43 40 36 35 33 31 31 28 25 23 23 24 24 24 22 23 25 25 24 25 24 21 21 23 25 27 27 25 25 26 27 28 28 28 28 27 26 26 27 28 29 30
18 14 12 13 18 23 28 33 33 34 35 37 41 44 45 46 47 47 48 47 45 45 43 42 43 42 42 42 40 36 32 31 29 24 20 19 20 21 20 21 24 24 22 22 24 24 26 26 25 25 25 25 25 26 27 28 27 26 27 28 29 30 31
18 13 11 15 21 24 29 37 39 38 37 37 37 38 41 45 47 46 47 50 50 46 45 46 46 45 45 44 41 36 31 31 32 27 19 17 19 19 17 19 23 24 23 24 26 26 25 25 26 26 26 25 26 27 27 27 27 27 28 28 28 30 30
16 11 10 15 16 16 25 34 34 34 39 41 39 39 39 40 45 48 52 52 48 43 42 44 45 45 44 43 41 38 32 29 31 30 24 20 20 20 18 18 20 22 21 22 25 28 27 25 26 26 27 28 28 28 28 26 26 27 28 28 27 28 28
13 11 12 14 11 11 18 19 17 27 38 39 39 43 43 40 40 46 50 49 44 40 38 39 42 42 41 40 41 41 37 31 31 33 32 28 24 21 18 17 19 23 24 22 23 27 28 27 26 25 26 27 27 28 29 29 28 29 29 28 27 27 28
14 16 14 8 7 15 16 11 15 27 30 27 31 39 44 44 42 41 41 41 40 40 37 35 36 37 39 40 41 42 40 34 30 33 36 35 30 26 22 20 19 24 29 28 25 26 27 27 27 25 24 25 25 26 29 30 30 30 31 30 28 28 28
12 12 9 6 11 18 14 11 19 24 24 25 29 35 41 43 43 42 40 35 32 33 33 33 31 32 36 38 38 39 39 34 30 30 33 35 35 32 28 24 21 23 29 32 29 27 27 27 26 25 24 25 26 27 29 30 30 31 33 32 30 29 30
13 13 15 16 20 19 14 14 15 14 19 27 29 34 40 38 36 42 44 38 33 30 30 30 30 31 34 36 36 36 36 34 30 29 29 31 33 35 33 29 23 21 25 30 30 29 30 28 27 25 23 23 25 28 29 30 30 31 33 33 31 31 32
18 16 15 12 10 8 9 11 8 7 14 23 27 32 39 37 33 37 41 40 38 34 30 30 31 32 34 36 36 34 34 33 30 27 25 24 26 31 34 32 26 21 21 25 28 29 31 29 26 25 26 26 27 28 28 29 29 30 33 36 35 33 30
23 19 13 8 7 9 9 8 6 5 9 19 24 24 31 38 37 34 36 37 37 37 35 34 34 35 36 36 34 33 33 32 28 25 24 22 20 23 29 30 26 22 22 23 23 25 27 26 24 24 25 28 31 31 29 28 29 31 35 38 36 30 25
30 27 19 14 16 18 16 14 13 11 12 16 17 12 21 35 37 33 33 32 32 34 35 34 36 37 36 33 32 33 33 31 27 24 23 23 21 20 23 25 24 25 25 24 22 21 22 23 24 24 25 27 30 32 32 31 31 33 36 36 31 26 22
33 30 24 21 23 23 21 21 19 15 12 12 17 17 23 29 29 31 33 30 27 29 31 32 34 34 32 30 31 32 32 31 29 25 22 22 22 21 21 23 25 27 28 26 24 22 21 23 25 26 26 26 26 29 32 33 33 32 32 30 27 25 24
32 33 29 24 24 25 24 24 22 17 11 12 21 26 27 25 24 27 30 29 27 26 27 28 29 29 29 29 30 31 31 30 28 26 23 22 22 23 23 24 27 28 29 28 26 24 23 24 25 26 26 26 25 26 28 29 29 29 29 28 27 26 25
29 29 25 16 17 23 23 20 19 16 12 15 22 24 23 23 24 26 28 29 29 28 28 28 28 28 27 27 29 30 29 28 27 26 24 23 23 24 25 27 29 30 30 30 29 28 27 27 27 27 27 27 28 27 27 27 28 31 31 31 30 30 30
28 27 26 20 19 24 22 16 14 14 13 15 20 21 21 21 23 25 26 26 27 29 31 31 30 30 28 27 29 29 28 28 28 26 25 25 25 25 25 27 29 29 30 30 31 30 30 30 31 30 29 29 30 30 29 29 32 35 36 36 36 36 36
29 28 33 33 28 26 26 20 16 15 13 13 16 19 19 20 22 23 23 25 26 28 30 30 30 30 29 28 28 27 27 26 25 25 25 25 25 25 24 23 23 23 24 25 26 27 28 29 30 30 30 30 31 31 31 31 33 35 36 37 38 38 37
26 23 31 37 35 34 34 26 16 12 10 9 12 17 18 19 22 22 22 24 26 26 27 26 25 26 27 27 28 27 26 25 24 23 23 23 23 24 23 22 21 20 20 20 20 21 22 23 25 26 26 28 30 31 32 32 33 33 34 35 36 36 37
22 20 29 38 41 43 44 36 24 16 9 4 8 13 13 15 21 24 23 24 26 27 28 25 22 22 23 23 26 28 27 26 25 24 22 21 21 21 21 21 20 20 20 20 19 19 20 20 21 22 23 25 26 28 30 32 33 34 34 34 34 34 35
21 21 30 40 43 46 48 44 34 20 8 5 5 13 12 11 16 21 22 23 26 29 30 26 20 19 20 20 22 25 26 25 24 23 22 20 19 19 19 19 19 19 19 20 21 21 22 22 23 23 24 24 25 27 28 30 31 32 33 34 35 35 36
22 21 31 40 44 46 48 47 40 27 11 6 2 13 13 9 11 14 15 17 21 26 30 29 23 19 17 18 19 21 22 23 22 21 20 19 18 18 18 17 17 18 18 18 20 21 22 23 24 25 26 27 28 28 28 29 30 31 32 33 35 36 37
22 24 32 39 41 42 44 45 43 37 22 6 3 7 11 10 9 11 12 13 18 23 26 28 25 19 13 13 14 15 16 18 18 17 17 17 17 16 16 15 15 15 16 17 18 19 20 22 23 24 25 27 28 29 30 31 31 32 33 34 35 36 37
22 22 28 35 39 38 38 40 43 44 34 13 5 3 8 10 9 9 11 13 17 20 21 22 21 17 12 10 10 9 11 12 12 13 13 14 14 14 14 15 15 15 15 16 17 18 20 21 22 23 24 25 26 28 29 31 33 35 36 38 39 40 40
25 22 22 30 37 37 34 33 37 42 41 28 12 4 4 8 11 11 10 12 15 17 17 18 16 12 8 8 7 6 8 9 9 9 9 10 11 12 13 15 16 16 16 16 17 18 19 20 21 22 23 24 26 27 29 31 33 35 36 38 39 41 42
22 24 26 27 29 31 30 28 29 34 37 36 29 16 5 3 11 13 12 13 14 15 15 15 13 9 8 8 7 3 4 6 7 8 8 9 10 11 12 13 14 16 17 17 18 18 19 20 21 22 24 26 27 28 30 32 33 35 35 36 37 38 39

ECMWFFLT2_700_spd_033.txt.gz
Wind_Speed
37 33 30 32 27 23 25 28 32 30 29 27 14 5 5 4 5 7 14 19 19 17 21 24 23 24 25 25 27 28 29 29 27 27 24 19 18 19 18 18 19 22 27 30 31 32 32 32 29 27 27 27 29 30 32 32 31 31 32 31 31 30 30
28 30 30 29 29 29 25 27 32 27 20 21 20 10 5 6 7 6 13 20 18 15 19 24 26 28 29 29 30 30 29 28 26 26 24 20 18 17 17 17 16 18 22 27 31 32 32 32 31 29 28 27 26 26 27 29 30 31 31 31 31 31 31
23 27 30 27 29 33 29 27 28 23 15 17 22 15 6 8 7 5 9 15 18 22 22 16 15 18 22 25 28 31 32 31 29 27 25 21 18 17 16 15 15 14 15 20 27 31 33 33 32 30 29 29 28 26 26 25 26 27 28 29 31 31 32
20 25 31 30 31 33 33 29 24 22 18 16 24 23 11 7 7 5 5 6 14 26 32 29 23 19 18 17 19 24 29 32 31 30 28 24 19 17 16 14 14 13 13 16 21 26 31 32 32 31 31 32 31 29 28 27 25 25 26 27 27 27 29
21 27 33 33 34 36 37 32 24 24 22 14 18 25 20 11 6 5 5 6 5 6 10 15 18 19 20 20 18 19 21 23 23 25 29 27 21 17 16 15 15 15 14 14 16 21 26 30 31 32 33 33 31 30 30 29 28 28 27 26 24 23 23
23 26 27 27 29 33 36 35 32 30 27 19 12 14 22 22 13 7 5 8 6 4 3 2 1 4 10 15 18 19 18 16 14 16 21 26 26 23 20 19 18 17 17 16 15 17 21 26 31 33 35 34 33 32 30 29 30 29 28 28 26 23 22
19 21 21 21 23 29 33 35 37 36 31 28 19 11 18 24 20 14 10 10 13 17 19 13 8 8 7 7 11 14 17 18 16 16 18 22 25 26 25 25 25 24 22 20 19 18 18 22 27 31 34 34 33 32 30 30 30 28 27 28 26 25 24
16 16 18 22 25 32 36 34 37 38 35 35 31 24 21 20 19 17 12 10 12 12 10 7 6 7 6 5 6 7 12 17 19 20 20 20 21 24 27 28 27 26 26 25 24 21 19 19 23 28 32 33 33 32 31 30 30 27 27 28 27 26 26
13 14 15 22 27 31 35 34 35 38 39 38 37 32 26 21 22 24 17 11 9 9 8 7 5 6 7 7 7 7 8 12 16 19 21 21 21 21 23 23 22 21 22 23 21 18 17 17 19 24 28 31 32 31 31 30 28 27 28 28 27 26 26
11 11 11 18 24 24 27 32 34 36 39 39 36 31 25 21 23 29 28 18 12 13 14 11 9 10 9 8 8 9 9 10 13 15 17 20 20 19 19 19 18 16 15 16 15 13 14 17 19 22 26 30 30 30 30 29 28 28 29 29 28 27 27
11 9 9 16 25 24 23 27 30 33 35 36 37 33 28 25 24 29 37 33 26 27 24 17 15 14 13 12 9 9 10 9 11 12 14 17 19 18 17 17 17 16 14 14 12 10 12 19 23 24 26 29 31 31 30 29 29 29 29 29 29 29 29
14 14 12 15 21 24 23 25 28 30 30 32 37 35 31 30 27 27 37 41 38 41 35 25 20 16 13 12 11 11 11 9 11 12 12 13 14 15 16 17 17 18 17 16 13 10 10 18 25 26 26 29 30 31 30 30 29 29 29 30 31 31 31
11 14 15 14 16 18 20 24 28 31 30 30 33 34 35 37 34 31 36 40 41 45 42 36 32 25 19 17 16 16 15 11 12 12 11 11 11 13 15 16 17 18 18 18 16 12 9 14 23 26 26 28 30 31 31 30 29 30 31 32 32 32 33
8 9 13 15 16 17 19 23 27 31 33 32 31 32 36 40 41 40 40 39 40 43 41 39 37 34 32 31 29 25 19 15 13 12 13 13 14 14 13 14 15 16 19 20 19 16 13 11 18 24 26 28 31 31 30 30 31 32 33 33 33 34 34
10 8 9 12 15 17 21 24 27 29 31 33 33 32 33 35 37 41 42 41 44 44 39 36 35 35 35 36 33 28 24 22 21 20 20 19 18 18 15 13 13 14 18 22 20 19 16 12 14 21 26 28 30 31 30 30 31 32 34 35 34 35 35
11 9 8 12 15 16 20 26 31 32 32 34 33 33 32 31 30 35 38 40 42 42 37 35 34 33 33 33 32 32 32 31 30 29 28 24 20 19 17 17 14 11 15 21 21 19 18 17 16 19 24 29 30 31 31 30 31 32 34 34 34 34 35
10 11 9 10 11 13 16 22 29 35 37 37 35 35 34 31 28 29 30 31 36 38 35 34 35 34 32 31 32 33 34 33 33 32 30 27 23 20 18 20 19 15 14 17 19 19 18 20 21 20 23 28 29 29 29 29 30 32 32 33 33 34 34
9 13 12 10 10 9 8 11 19 27 32 36 39 40 40 37 34 31 27 27 31 32 29 28 29 31 32 31 29 29 29 30 31 31 29 28 25 22 20 21 23 21 17 15 17 18 16 19 24 24 25 27 29 29 29 29 30 30 29 30 31 32 33
9 12 11 7 8 9 7 8 13 15 18 24 30 33 36 39 40 40 38 36 33 29 26 23 22 24 27 28 28 27 27 27 28 29 29 28 25 23 22 23 25 24 20 16 16 17 17 18 23 27 27 27 28 30 30 29 28 27 26 26 28 29 31
8 8 9 8 6 4 9 10 11 11 13 16 18 19 22 26 32 37 41 41 38 36 33 28 22 21 23 25 28 28 26 27 28 28 28 27 25 22 22 24 26 26 22 19 17 17 20 21 22 26 29 28 28 30 31 30 30 28 27 26 27 29 29
12 11 14 17 15 10 13 15 12 11 14 15 16 17 18 21 25 28 30 31 33 35 36 32 27 24 24 26 27 27 26 26 26 26 26 25 24 22 21 23 27 27 23 21 19 18 21 24 23 24 27 29 28 28 29 29 30 31 32 30 29 30 30
15 15 14 15 14 13 16 19 17 15 15 14 15 17 19 23 26 27 27 26 25 27 29 30 29 28 30 30 25 22 22 22 22 23 23 24 24 22 19 21 26 30 26 23 21 19 21 27 28 26 26 27 27 28 28 27 27 30 33 33 32 31 32
16 18 16 14 12 9 8 10 14 15 13 12 14 15 19 25 27 27 27 26 24 24 24 26 29 32 36 32 22 18 19 19 19 20 21 23 23 20 18 18 23 29 30 27 23 20 21 27 30 31 29 28 27 28 28 27 27 28 29 31 32 33 33
18 19 18 18 17 15 14 12 11 12 10 9 10 9 10 15 19 21 24 25 25 25 24 23 27 32 34 29 22 21 21 20 20 20 20 22 23 21 18 17 19 25 29 29 26 22 21 25 29 31 32 31 30 29 28 28 27 27 26 27 29 32 33
22 20 20 20 18 21 24 21 16 16 13 10 11 11 6 7 11 12 15 19 23 26 27 26 26 28 29 27 25 25 24 22 21 21 21 22 23 22 21 18 17 20 24 27 27 24 22 23 26 28 30 31 32 33 33 32 29 26 27 28 29 29 30
23 20 20 18 17 21 27 26 22 22 18 12 15 17 14 15 18 16 14 15 18 22 26 28 27 26 26 26 26 27 26 23 21 22 22 22 23 24 23 21 18 18 20 22 24 25 24 25 25 24 24 26 27 29 31 31 28 26 27 29 30 30 31
22 20 17 13 12 17 23 27 26 25 22 21 22 22 20 21 23 22 21 20 20 21 24 26 27 27 26 26 27 27 27 24 23 24 23 23 23 24 24 23 20 18 19 21 23 25 26 27 27 26 23 22 23 25 26 26 26 26 26 27 29 31 32
19 19 19 17 11 7 10 21 29 29 26 25 26 24 22 22 22 23 24 24 24 24 24 24 25 26 27 26 27 28 27 25 25 25 25 24 24 24 23 23 21 19 20 22 24 26 28 29 29 28 25 23 23 24 25 25 26 26 27 28 29 30 32
18 20 23 22 15 9 10 19 27 30 29 27 25 23 23 22 22 24 26 26 25 25 26 25 25 27 27 27 27 30 29 27 26 27 27 26 26 25 24 24 23 22 22 23 24 25 27 28 28 27 26 25 25 26 26 26 26 27 28 29 30 30 31
20 25 30 29 20 15 17 19 22 27 31 28 24 23 22 22 23 25 28 28 27 27 29 28 28 30 29 26 27 30 30 28 28 29 29 28 27 26 26 26 25 25 24 24 25 26 26 26 27 27 27 27 28 28 28 27 27 28 28 28 29 29 30
21 24 30 32 27 22 20 19 20 26 30 28 23 22 22 21 23 25 27 27 27 28 30 29 29 31 29 25 25 28 29 29 30 30 30 29 28 27 27 26 26 27 26 27 27 28 29 29 29 29 29 29 29 30 29 28 28 28 28 27 27 28 28
25 26 25 28 30 29 24 20 18 21 25 26 22 20 20 20 21 22 20 19 20 23 26 26 25 26 27 27 27 28 29 30 31 31 30 29 28 26 26 25 26 27 28 29 30 30 31 30 29 29 28 28 28 29 29 28 28 28 28 27 27 27 27
28 30 27 25 27 30 29 25 21 19 20 23 24 23 20 18 19 20 16 14 16 20 23 25 26 26 28 29 30 30 30 31 32 31 31 30 29 27 26 26 27 28 29 30 30 31 31 30 29 28 28 27 28 28 28 28 28 28 29 29 28 28 28
28 31 29 26 26 27 27 26 26 23 19 20 25 27 23 15 16 18 17 15 17 20 23 25 26 28 30 31 31 30 29 29 30 31 30 30 29 28 27 27 27 28 28 28 28 28 28 28 28 27 27 27 27 28 28 28 28 29 29 30 30 30 31
30 33 32 30 29 27 23 21 24 26 21 18 22 26 24 17 14 15 16 15 15 17 20 22 23 26 29 31 31 30 28 27 28 28 28 27 26 24 24 24 25 26 27 27 27 26 26 26 26 26 25 26 26 27 28 28 29 30 30 31 32 32 33
31 34 34 33 32 31 25 20 22 23 20 19 20 21 22 19 14 13 15 15 14 16 18 18 20 22 25 28 29 28 26 25 25 25 25 24 22 20 20 21 22 23 24 24 24 25 24 25 25 26 26 26 26 27 28 28 29 30 31 32 33 34 34
30 32 33 32 32 31 26 23 25 24 19 19 22 20 18 18 15 13 13 15 15 16 17 18 18 19 21 23 25 23 22 21 21 22 22 22 20 18 18 18 18 19 20 20 20 21 21 22 23 24 25 25 26 26 27 27 28 29 30 31 33 33 35

ECMWFFLT2_700_spd_036.txt.gz
Wind_Speed
28 31 33 31 26 23 24 29 31 28 24 21 16 10 7 8 8 9 17 21 17 15 17 17 15 15 16 19 20 21 23 23 23 26 28 27 23 18 14 15 16 18 21 25 27 28 28 28 28 26 24 25 28 30 30 31 32 33 34 34 33 33 33
29 29 29 31 30 24 22 27 29 24 20 20 19 13 9 9 9 11 17 21 19 17 14 14 19 21 18 19 21 20 21 21 20 23 25 24 22 18 15 15 17 18 19 21 25 27 28 28 29 28 25 22 23 26 28 30 31 33 33 33 33 33 33
27 29 28 30 33 30 23 21 24 24 21 20 20 14 10 10 9 9 16 19 18 19 15 9 13 19 20 19 19 19 20 20 21 21 21 22 23 20 17 17 19 19 18 18 20 24 26 27 27 29 28 25 22 21 23 26 29 31 32 32 33 33 33
25 29 32 32 33 33 27 20 22 26 21 18 22 20 14 11 9 7 11 14 14 19 21 16 13 14 16 17 18 18 18 19 19 18 19 21 23 20 18 18 17 16 15 15 17 21 25 27 28 29 30 29 26 23 22 23 26 29 31 32 32 33 33
27 30 34 35 33 33 33 27 26 28 23 17 18 22 21 16 10 6 7 8 8 8 13 18 19 17 16 17 17 17 17 17 17 16 16 20 22 20 18 17 16 13 12 12 14 19 23 28 30 31 31 31 30 28 25 23 24 25 27 29 29 30 31
28 28 29 31 30 31 34 32 29 29 27 21 14 14 21 22 16 10 7 7 5 2 5 9 11 12 13 14 15 17 16 15 16 15 14 17 21 22 20 19 17 14 14 13 13 16 20 25 29 31 32 33 32 31 29 26 26 24 24 25 25 26 27
21 21 22 27 29 29 32 31 30 30 29 26 19 12 15 20 19 16 12 10 7 4 11 11 5 5 7 9 11 13 14 13 14 15 14 16 20 22 23 23 21 18 17 16 16 15 16 19 23 28 32 34 34 33 32 31 29 27 25 24 23 23 24
15 16 18 24 27 28 33 33 31 32 31 29 23 16 14 16 19 18 13 10 9 9 9 8 6 3 5 7 7 8 11 12 13 14 15 15 17 20 22 23 24 23 21 20 20 18 15 14 17 22 28 32 34 34 34 34 32 29 27 26 25 24 24
12 14 15 22 29 31 32 32 32 33 31 29 26 22 19 17 18 19 14 9 8 8 8 8 7 7 6 6 6 6 7 9 10 13 15 15 15 16 19 22 23 24 24 24 23 23 20 18 18 19 22 27 32 34 35 35 33 31 31 30 28 26 25
12 14 13 19 29 32 30 28 30 32 31 30 28 25 23 19 17 21 19 11 6 8 11 11 9 7 6 5 5 5 5 6 6 8 11 13 13 13 15 17 18 19 20 21 22 21 20 20 21 22 22 24 29 33 35 35 34 34 34 33 31 28 27
10 10 10 15 24 28 30 30 28 30 31 31 29 27 25 21 18 22 23 16 9 9 12 11 9 8 6 4 4 4 4 5 4 5 7 10 12 12 12 12 12 12 13 15 16 15 14 16 21 24 25 27 29 32 34 35 35 35 35 35 33 31 29
9 6 6 14 21 21 24 28 29 29 29 30 32 31 25 19 17 20 21 20 19 14 12 11 8 7 6 6 5 5 7 8 7 7 8 7 8 11 11 10 10 10 11 13 15 14 13 14 19 24 28 29 31 32 33 35 36 36 36 36 35 33 31
14 9 5 12 19 17 19 21 22 26 28 29 32 31 27 23 20 16 14 18 22 22 19 16 13 11 10 9 8 9 11 10 8 9 10 5 6 10 11 11 10 9 10 11 13 15 14 13 16 22 27 29 30 32 33 35 37 37 37 37 36 34 33
11 11 8 10 15 16 19 20 18 20 23 24 26 25 25 27 25 21 18 18 20 20 21 22 20 18 17 16 15 16 16 14 13 12 10 6 8 11 11 10 10 9 8 9 9 12 13 13 14 19 24 27 27 29 31 34 36 37 37 37 36 35 35
9 11 10 12 12 12 16 20 21 21 21 21 21 21 23 24 24 23 22 22 22 20 18 17 17 17 17 17 17 19 21 21 19 17 13 10 11 13 11 11 12 10 9 10 9 8 8 10 13 16 21 24 25 27 29 32 35 37 38 38 37 36 36
10 10 10 11 11 11 15 19 23 24 24 24 22 21 23 23 23 23 24 24 23 20 17 17 17 19 20 21 20 20 21 22 21 21 18 15 15 15 14 15 15 11 11 13 12 10 8 8 10 14 19 24 25 25 26 29 33 36 37 37 37 37 37
10 9 8 9 7 10 18 23 26 27 26 26 24 23 24 24 24 26 28 25 21 18 19 19 19 20 21 22 22 21 20 20 20 20 21 20 19 19 18 18 16 14 13 14 15 14 11 9 10 12 18 24 26 25 25 28 32 35 36 35 36 36 38
9 5 4 6 8 10 13 14 19 25 25 25 24 24 25 24 25 28 27 22 17 16 16 15 15 17 19 20 21 20 19 20 19 19 20 21 21 21 20 19 17 16 15 16 18 17 14 12 12 12 16 22 26 27 28 30 32 33 33 35 35 35 37
9 6 4 7 10 9 7 5 10 19 25 27 26 24 23 22 21 23 23 21 20 19 17 15 16 18 20 21 20 18 18 20 20 19 19 19 18 18 18 18 18 18 18 19 20 20 17 15 15 15 16 19 25 30 30 29 30 32 32 33 34 34 35
10 9 10 10 5 4 6 4 6 13 19 25 28 27 26 26 24 24 23 21 22 23 21 19 22 24 25 24 22 20 20 20 20 20 19 18 16 17 17 17 18 19 20 22 23 22 20 18 16 17 18 18 21 28 31 30 30 32 33 33 33 33 33
12 12 14 13 7 4 6 6 7 11 12 15 19 20 20 25 30 32 33 31 30 30 28 26 27 27 27 26 23 19 18 19 20 20 20 19 17 17 18 18 17 18 20 23 25 24 23 20 18 19 20 19 18 23 30 31 29 31 33 33 33 33 33
13 13 13 12 10 10 10 10 10 12 11 11 15 15 14 17 21 24 28 31 33 34 34 34 33 29 28 28 24 18 17 19 20 20 20 20 18 18 18 18 17 17 19 23 26 26 25 23 21 21 22 21 19 20 25 30 32 32 33 32 32 32 32
15 15 14 12 10 7 5 8 9 12 10 7 8 12 15 16 16 16 19 22 24 26 28 29 28 28 29 27 23 21 20 19 20 20 19 18 17 17 18 18 17 17 18 22 27 28 27 24 23 22 22 23 22 20 20 26 32 33 32 31 32 32 31
16 17 16 14 12 8 5 6 6 9 10 5 4 7 11 13 13 14 17 21 22 24 24 23 22 23 25 24 23 25 24 20 19 19 18 17 17 17 18 18 18 17 17 20 25 29 29 26 24 23 24 25 25 23 21 23 27 29 31 33 34 34 34
18 18 17 14 12 10 8 7 6 5 4 5 7 8 7 8 7 8 13 18 21 23 24 24 24 24 24 24 25 26 24 22 22 21 20 19 18 18 19 19 18 18 17 17 22 26 29 29 26 24 23 26 28 27 24 23 23 25 28 31 32 33 34
18 19 19 17 14 10 9 10 10 9 6 4 7 8 7 8 6 4 7 12 16 18 21 23 25 25 24 24 25 25 24 25 25 24 24 23 21 19 20 21 20 19 17 16 18 23 26 29 29 25 23 25 29 30 27 25 25 26 27 28 28 28 30
18 18 18 14 10 9 11 12 11 11 12 13 13 12 10 8 7 7 8 10 12 14 16 18 20 22 22 23 24 25 25 25 27 28 27 26 24 21 20 22 22 21 19 17 17 19 22 26 28 27 24 23 27 30 29 27 28 30 31 31 31 30 30
18 19 17 13 10 10 12 16 17 14 14 19 21 20 18 16 14 13 12 12 14 16 17 18 18 20 21 21 23 26 26 26 27 29 29 29 26 23 21 21 22 23 22 20 18 17 19 22 24 25 24 23 25 26 27 27 28 30 32 33 33 33 32
17 21 18 15 15 14 10 12 19 19 15 17 20 22 23 22 20 18 16 15 15 17 18 20 21 22 23 22 23 26 28 28 28 28 29 30 29 25 23 22 21 22 23 22 20 18 18 19 21 22 23 24 26 26 25 25 25 26 27 28 29 29 29
19 24 25 20 19 19 13 12 18 20 18 15 15 18 21 22 21 20 18 17 18 18 19 20 21 23 24 25 26 28 29 29 29 29 29 31 30 26 24 22 22 21 22 23 22 21 20 19 19 19 21 24 27 28 27 26 25 24 24 24 24 25 25
16 19 24 25 25 25 21 18 19 20 19 17 14 13 15 18 20 21 20 19 20 21 21 22 23 25 26 27 28 29 30 30 30 29 29 30 29 26 24 23 23 22 22 23 23 23 23 22 19 19 21 23 25 27 28 27 26 25 24 23 24 24 25
16 17 20 25 29 30 28 23 20 18 17 16 15 13 12 14 16 18 19 20 21 22 23 24 25 26 27 29 30 31 31 31 30 29 28 27 26 25 25 25 25 24 24 24 25 24 24 24 23 22 21 22 23 24 24 25 25 26 26 25 25 26 26
17 19 21 23 25 27 28 27 24 21 17 15 16 14 11 10 11 11 14 18 20 21 24 27 28 28 30 31 32 32 32 31 30 29 26 25 25 26 26 27 27 27 27 27 27 27 26 25 25 24 24 24 24 24 24 25 25 26 27 28 28 27 27
18 18 19 21 23 25 26 28 31 28 21 16 16 15 12 11 11 10 12 18 22 22 24 27 29 29 29 30 31 32 31 29 29 28 27 26 27 27 29 29 29 29 29 29 29 29 28 27 27 27 27 27 27 26 26 25 25 25 26 27 27 27 27
21 19 18 19 25 30 31 30 32 33 27 19 15 14 13 13 12 11 12 15 21 23 24 26 28 27 26 27 27 29 29 28 28 28 28 29 30 31 32 31 31 31 30 30 30 30 30 29 28 28 28 29 28 28 28 27 27 26 26 26 26 26 26
26 26 24 24 27 33 35 33 32 33 32 25 16 13 14 14 12 12 14 15 19 21 20 21 24 25 25 25 26 26 28 29 29 31 32 32 33 33 33 33 33 32 31 31 30 30 29 29 28 28 28 28 28 28 28 28 27 27 26 26 26 26 26
27 27 25 27 31 34 36 37 35 33 33 31 23 17 15 13 12 12 14 15 18 21 20 20 22 23 24 25 26 26 27 28 29 31 32 33 33 33 33 33 32 31 30 30 29 28 28 27 27 27 26 26 26 26 26 26 26 26 26 26 26 26 27